Tracking 25534 objects as of 29-Jan-2022
HD Live streaming from Space Station
objects crossing your sky now

THOR ABLESTAR DEB

Track THOR ABLESTAR DEB now!
10-day predictions


NORAD ID: 3125
Int'l Code: 1961-015HY
Perigee: 939.5 km
Apogee: 1,402.0 km
Inclination: 67.6 °
Period: 108.6 minutes
Semi major axis: 7541 km
RCS: 0.0125 m2 (small)
Launch date: June 29, 1961
Source: United States (US)
Launch site: AIR FORCE EASTERN TEST RANGE (AFETR)

Note: This is SATELLITE DEBRIS
aabbcc
Your satellite tracking list
Your tracking list is empty




NASA's NSSDC Master Catalog

Two Line Element Set (TLE):
1 03125U 61015HY  22028.16125993  .00000157  00000-0  38464-3 0  9995
2 03125  67.5582  51.6776 0306635 180.4544 244.5727 13.25543760935269
Source of the keplerian elements: AFSPC